Home > Weather > Longueuil > Past weeks

Flag for Canada Past Weather in Longueuil, Quebec, Canada — Yesterday and Last 2 Weeks

Now
72 °F

Mild.


Feels Like: 74 °F
Forecast: 67 / 86 °F
Wind: 3 mph from West

Location: Mc Tavish

Current Time: Jul 27, 2016 at 2:00:30 AM

Latest Report: Jul 27, 2016 at 1:00 AM


Visibility: N/A

Pressure: 29.88 "Hg

Humidity: 75%

Dew Point: 64 °F

Location of LongueuilLocation

Past Weather in Longueuil — Graph

°F

Longueuil Temperature Yesterday

Maximum temperature yesterday: 81 °F (at 6:00 PM)
Minimum temperature yesterday: 68 °F (at 6:00 AM)
Average temperature yesterday: 74 °F

High & Low Weather Summary for the Past Weeks

 TemperatureHumidityPressure
High89 °F (Jul 13, 4:00 PM)95% (Jul 23, 4:00 PM)30.18 "Hg (Jul 23, 4:00 PM)
Low58 °F (Jul 19, 6:00 AM)38% (Jul 20, 4:00 PM)29.63 "Hg (Jul 14, 6:00 PM)
Average73 °F67%29.90 "Hg
* Reported Jul 12 1:00 AM — Jul 27 1:00 AM, Longueuil, Weather by CustomWeather, © 2016

Note: Actual official high and low records may vary slightly from our data, if they occured in-between our weather recording intervals... More about our weather records

Advertising

Longueuil Weather History for the Previous 24 Hours

Scroll right to see more
 ConditionsComfort  
Time TempWeatherWind HumidityBarometerVisibility
1:00 AM
Wed, Jul 27
72 °FMild.3 mph75%29.88 "HgN/A
12:00 AM72 °FMild.2 mph74%29.88 "HgN/A
11:00 PM
Tue, Jul 26
72 °FMild.1 mph75%29.88 "HgN/A
10:00 PM72 °FMild.2 mph73%29.88 "HgN/A
9:00 PM74 °FMild.1 mph69%29.86 "HgN/A
8:00 PM78 °FWarm.1 mph60%29.85 "HgN/A
7:00 PM79 °FWarm.2 mph52%29.84 "HgN/A
6:00 PM81 °FWarm.2 mph49%29.84 "HgN/A
5:00 PM80 °FWarm.3 mph55%29.84 "HgN/A
4:00 PM80 °FWarm.3 mph54%29.84 "HgN/A
3:00 PM78 °FWarm.5 mph59%29.84 "HgN/A
2:00 PM76 °FMild.2 mph65%29.84 "HgN/A
1:00 PM77 °FMild.2 mph67%29.83 "HgN/A
12:00 PM74 °FMild.3 mph67%29.83 "HgN/A
11:00 AM74 °FMild.2 mph70%29.82 "HgN/A
10:00 AM74 °FMild.3 mph74%29.81 "HgN/A
9:00 AM74 °FMild.3 mph78%29.79 "HgN/A
8:00 AM69 °FMild.2 mph84%29.78 "HgN/A
7:00 AM68 °FMild.3 mph84%29.78 "HgN/A
6:00 AM68 °FMild.2 mph83%29.75 "HgN/A
5:00 AM69 °FMild.2 mph84%29.73 "HgN/A
4:00 AM70 °FMild.2 mph90%29.71 "HgN/A
3:00 AM70 °FMild.3 mph91%29.71 "HgN/A
2:00 AM71 °FMild.3 mph92%29.71 "HgN/A
Weather by CustomWeather, © 2016

See weather overviewHow to use our weather pages